{"data":{"norad_id":55354,"intl_designator":"2023-013Z","name":"STARLINK-5649","alt_names":[],"object_type":"PAYLOAD","status":"ACTIVE","operator":null,"country":"US","launch_date":"2023-01-26","launch_site_code":"AFETR","launch_vehicle":null,"mission":null,"orbit_class":"UNKNOWN","rcs_meters":null,"size_class":null,"mass_kg":null,"dimensions":null,"purposes":["comms"],"wikipedia_slug":null,"has_3d_model":false,"image_url":null,"decayed_at":null,"tle_current":{"epoch":"2026-05-24T14:02:58.809696Z","epoch_age_seconds":114909,"freshness":"FRESH","line1":"1 55354U 23013Z   26144.58540289  .00034937  00000+0  12801-2 0  9998","line2":"2 55354  43.0023 234.5340 0001664 269.2048  90.8613 15.27399750183282","mean_motion":15.2739975,"eccentricity":0.0001664,"inclination_deg":43.0023,"raan_deg":234.534,"arg_perigee_deg":269.2048,"mean_anomaly_deg":90.8613,"bstar":0.0012801,"rev_number":18328,"period_min":94.277873228669,"perigee_km":482.44709127545,"apogee_km":484.73067364913,"semimajor_km":6861.7258824623,"source":"CELESTRAK","updated_at":"2026-05-25T13:38:17.764592Z"}}}